Regional Weather Roundup
Issued by NWS

Home | Current Version | Previous Version | Graphics & Text | Print | Product List | Glossary On
Versions: 1 2 3 4 5 6 7 8 9 10 11 12 13 14 15 16 17 18 19 20 21 22 23 24 25 26 27 28 29 30 31 32 33 34 35 36 37 38 39 40 41 42 43 44 45 46 47 48 49 50
000
ASUS43 KLSX 301359
RWRMO

WEATHER SUMMARY FOR MISSOURI
NATIONAL WEATHER SERVICE SPRINGFIELD MO
900 AM CDT MON MAR 30 2015

NOTE: "FAIR" INDICATES FEW OR NO CLOUDS BELOW 12,000 FEET WITH NO
       SIGNIFICANT WEATHER AND/OR OBSTRUCTIONS TO VISIBILITY.
       CURRENT SKY AND/OR WEATHER CONDITIONS ARE NOT AVAILABLE FOR
       CHILLICOTHE AND FARMINGTON.

MOZ001>031-035>038-043-044-053-054-301500-
...NORTHERN AND WESTERN MISSOURI...

CITY           SKY/WX    TMP DP  RH WIND       PRES   REMARKS
KANSAS CTY INT CLOUDY    44  37  76 S6        30.18S
KANSAS C DTWN  PTSUNNY   45  37  73 SW3       30.18F
LEE`S SUMMIT   PTSUNNY   50  34  54 SW6       30.19S
CHILLICOTHE      N/A     45  36  70 SE5       30.18F
KIRKSVILLE     SUNNY     48  35  60 W6        30.17R

$$
MOZ066>068-077>081-088>096-101>105-301500-
...SOUTHWEST MISSOURI...

CITY           SKY/WX    TMP DP  RH WIND       PRES   REMARKS
SPRINGFIELD    SUNNY     49  43  80 S3        30.22R
JOPLIN         SUNNY     49  42  77 CALM      30.23S

$$
MOZ032>034-039>042-045>050-055>058-069>072-301500-
...CENTRAL MISSOURI...

CITY           SKY/WX    TMP DP  RH WIND       PRES   REMARKS
COLUMBIA       PTSUNNY   49  38  65 W3        30.19S
JEFFERSON CITY MOSUNNY   42  38  85 CALM      30.20F
ROLLA          SUNNY     48  38  68 SW6       30.19R
SEDALIA        MOSUNNY   48  37  65 SW8       30.21R
OSAGE BEACH    SUNNY     45  37  76 CALM      30.22S

$$
MOZ051-052-059>065-301500-
...EAST CENTRAL MISSOURI...

CITY           SKY/WX    TMP DP  RH WIND       PRES   REMARKS
ST LOUIS INTL  MOSUNNY   50  37  61 W6        30.19S
SPIRIT OF STL  MOSUNNY   46  40  79 CALM      30.19S
ST CHARLES     SUNNY     45  38  76 SW5       30.18S

$$
MOZ072>076-082>087-097>100-106>115-301500-
...SOUTH CENTRAL AND SOUTHEAST MISSOURI...

CITY           SKY/WX    TMP DP  RH WIND       PRES   REMARKS
CAPE GIRARDEAU SUNNY     51  43  74 CALM      30.23R
FARMINGTON     MOSUNNY   48  36  61 SW3       30.25R
POPLAR BLUFF   SUNNY     52  41  66 CALM      30.22S
WEST PLAINS    SUNNY     52  39  61 NE5       30.22F

$$


USA.gov is the U.S. government's official web portal to all federal, state and local government web resources and services.